EW4055 Weather Reports


Display with metric or nautical units.
time (UTC)temp
F
wind
direction
speed
MPH
gust
MPH
rain 1hr
in
rain 24hr
in
rain mn
in
humidity
%
barometer
mb
20260507215835 57 162 1.0 2.0 0.00 0.07 0.07 82 1014.5
20260507214833 58 159 0.0 3.0 0.00 0.07 0.07 82 1014.4
20260507213834 58 178 1.0 2.0 0.00 0.07 0.07 82 1014.5
20260507213624 58 233 0.0 3.0 0.00 0.07 0.07 81 1014.5
20260507211833 58 176 0.0 4.0 0.00 0.07 0.07 81 1014.6
20260507210943 59 238 0.0 3.0 0.00 0.07 0.07 80 1014.7
20260507210848 58 137 1.0 3.0 0.00 0.07 0.07 80 1014.5
20260507204832 59 142 0.0 5.0 0.00 0.07 0.07 79 1014.6
20260507203833 59 120 0.0 3.0 0.00 0.07 0.07 79 1014.7
20260507202836 59 7 0.0 3.0 0.00 0.07 0.07 79 1014.7
20260507201838 60 185 0.0 4.0 0.00 0.07 0.07 78 1014.7
20260507200832 60 159 0.0 2.0 0.00 0.07 0.07 77 1014.7
20260507200157 61 100 2.0 5.0 0.00 0.07 0.07 75 1014.5
20260507195903 61 154 1.0 5.0 0.00 0.07 0.07 76 1014.7
20260507194833 61 123 3.0 5.0 0.00 0.07 0.07 76 1014.5
20260507193211 62 162 4.0 7.0 0.00 0.07 0.07 73 1014.3
20260507192909 62 72 3.0 7.0 0.00 0.07 0.07 74 1014.5
20260507191938 62 76 4.0 7.0 0.00 0.07 0.07 72 1014.2
20260507191918 63 113 5.0 7.0 0.00 0.07 0.07 70 1014.2
20260507191842 62 148 2.0 7.0 0.00 0.07 0.07 74 1014.5
20260507183834 63 89 5.0 9.0 0.00 0.07 0.07 70 1014.2
20260507182835 63 96 2.0 10.0 0.00 0.07 0.07 69 1014.1
20260507182205 64 86 5.0 10.0 0.00 0.07 0.07 69 1013.9
20260507181911 64 110 6.0 10.0 0.00 0.07 0.07 69 1014.0
20260507175833 65 159 4.0 12.0 0.00 0.07 0.07 69 1013.7
20260507174836 65 89 4.0 10.0 0.00 0.07 0.07 68 1013.6
20260507174735 65 117 5.0 9.0 0.00 0.07 0.07 68 1013.5
20260507172834 65 111 6.0 12.0 0.00 0.07 0.07 68 1013.5
20260507171850 66 80 7.0 15.0 0.00 0.07 0.07 67 1013.4
20260507170835 66 99 7.0 13.0 0.00 0.07 0.07 68 1013.2
20260507165835 66 102 5.0 12.0 0.00 0.07 0.07 68 1013.1
20260507164832 66 90 6.0 13.0 0.00 0.07 0.07 68 1013.1
20260507163833 67 114 6.0 13.0 0.00 0.07 0.07 68 1013.0
20260507162834 67 66 6.0 13.0 0.00 0.07 0.07 67 1013.1
20260507162654 67 149 6.0 14.0 0.00 0.07 0.07 68 1013.3
20260507161642 67 127 8.0 14.0 0.00 0.07 0.07 67 1013.3
20260507155834 67 94 7.0 13.0 0.00 0.07 0.07 68 1013.3
20260507154833 67 104 9.0 16.0 0.00 0.07 0.07 67 1013.2
20260507154328 68 99 10.0 16.0 0.00 0.07 0.07 69 1013.1
20260507154307 68 100 8.0 15.0 0.00 0.07 0.07 69 1013.3
20260507153927 68 86 7.0 16.0 0.00 0.07 0.07 68 1013.1
20260507150833 69 71 11.0 17.0 0.00 0.07 0.07 69 1013.0
20260507145832 68 49 8.0 17.0 0.00 0.07 0.07 71 1013.2
20260507144833 68 68 12.0 17.0 0.00 0.07 0.07 71 1013.2
20260507144618 69 78 11.0 18.0 0.00 0.07 0.07 71 1013.2
20260507143758 71 100 11.0 17.0 0.00 0.07 0.07 67 1013.2
20260507141834 72 62 7.0 17.0 0.00 0.07 0.07 60 1013.2
20260507140832 74 76 10.0 15.0 0.00 0.07 0.07 53 1013.1
20260507135832 76 310 3.0 6.0 0.00 0.07 0.07 47 1013.2
20260507135356 75 319 2.0 4.0 0.00 0.07 0.07 46 1013.2
20260507135005 75 1 2.0 6.0 0.00 0.07 0.07 49 1013.2
20260507132830 76 286 1.0 5.0 0.00 0.07 0.07 46 1013.2
20260507131831 76 243 1.0 4.0 0.00 0.07 0.07 46 1013.4
20260507130829 77 250 1.0 5.0 0.00 0.07 0.07 46 1013.4
20260507125831 76 238 1.0 5.0 0.00 0.07 0.07 49 1013.4
20260507124829 76 213 1.0 4.0 0.00 0.07 0.07 48 1013.3
20260507123833 77 252 2.0 4.0 0.00 0.07 0.07 48 1013.5
20260507122829 76 0 1.0 9.0 0.00 0.07 0.07 47 1013.3
20260507121824 76 296 2.0 6.0 0.00 0.07 0.07 49 1013.5
20260507120827 76 247 1.0 6.0 0.00 0.07 0.07 51 1013.5
20260507120718 76 168 4.0 6.0 0.00 0.07 0.07 49 1013.6
20260507114823 76 250 2.0 6.0 0.00 0.07 0.07 50 1013.5
20260507113823 76 227 2.0 5.0 0.00 0.07 0.07 50 1013.7
20260507112821 75 220 2.0 4.0 0.00 0.07 0.07 49 1013.7
20260507112629 74 195 1.0 7.0 0.00 0.07 0.07 54 1013.8
20260507110815 73 186 2.0 5.0 0.00 0.07 0.07 56 1013.8
20260507110639 72 279 4.0 5.0 0.00 0.07 0.07 54 1013.9
20260507104814 72 265 2.0 7.0 0.00 0.07 0.07 60 1013.9
20260507103809 71 219 2.0 5.0 0.00 0.07 0.07 60 1014.1
20260507103456 70 278 3.0 9.0 0.00 0.07 0.07 62 1014.2
20260507101810 70 283 2.0 7.0 0.00 0.07 0.07 61 1014.2
20260507101625 69 264 2.0 6.0 0.00 0.07 0.07 64 1014.3
20260507095807 68 250 2.0 4.0 0.00 0.07 0.07 65 1014.3
20260507095454 69 281 3.0 5.0 0.00 0.07 0.07 61 1014.3
20260507093807 69 4 3.0 6.0 0.00 0.07 0.07 62 1014.3
20260507092809 69 343 3.0 6.0 0.00 0.07 0.07 67 1014.4
20260507092645 67 324 2.0 5.0 0.00 0.07 0.07 67 1014.3
20260507090807 66 279 3.0 7.0 0.00 0.07 0.07 66 1014.3
20260507085806 66 212 2.0 6.0 0.00 0.07 0.07 66 1014.3
20260507084809 66 247 2.0 5.0 0.00 0.07 0.07 68 1014.4
20260507083803 66 241 2.0 4.0 0.00 0.07 0.07 69 1014.2
20260507082806 66 279 2.0 5.0 0.00 0.07 0.07 68 1014.1
20260507081804 67 274 3.0 5.0 0.00 0.07 0.07 73 1014.0
20260507080806 65 286 1.0 5.0 0.00 0.07 0.07 73 1013.9
20260507080325 64 281 1.0 6.0 0.00 0.07 0.07 81 1013.8
20260507075924 65 268 2.0 4.0 0.00 0.07 0.07 77 1013.9
20260507073805 63 295 1.0 3.0 0.00 0.07 0.07 85 1013.9
20260507072807 62 155 0.0 4.0 0.00 0.07 0.07 85 1013.8
20260507071804 62 141 1.0 3.0 0.00 0.07 0.07 86 1014.0
20260507070805 61 151 2.0 4.0 0.00 0.07 0.07 88 1013.9
20260507070305 60 71 0.0 2.0 0.00 0.07 0.07 90 1013.9
20260507065919 60 134 1.0 3.0 0.00 0.07 0.07 88 1013.9
20260507063806 60 71 1.0 3.0 0.00 0.07 0.07 91 1013.8
20260507063428 60 178 0.0 3.0 0.00 0.07 0.07 91 1013.8
20260507061804 60 96 1.0 4.0 0.00 0.08 0.07 92 1013.8
20260507060802 59 73 2.0 3.0 0.00 0.09 0.07 92 1013.9
20260507055804 59 343 0.0 3.0 0.00 0.09 0.07 92 1013.7
20260507054803 58 87 0.0 3.0 0.00 0.09 0.07 92 1013.6
20260507053802 58 87 1.0 3.0 0.00 0.09 0.07 92 1013.6
20260507052803 58 87 0.0 3.0 0.00 0.09 0.07 91 1013.6
20260507051810 57 87 2.0 3.0 0.00 0.09 0.07 92 1013.5
20260507050806 57 87 2.0 3.0 0.00 0.09 0.07 92 1013.4
20260507045806 57 87 1.0 2.0 0.01 0.08 0.07 92 1013.2
20260507045449 57 87 1.0 3.0 0.01 0.08 0.07 92 1013.0
20260507043804 57 87 2.0 3.0 0.01 0.08 0.07 92 1012.9
20260507043216 57 1 2.0 4.0 0.01 0.08 0.07 91 1012.7
20260507042917 57 357 1.0 4.0 0.01 0.08 0.07 92 1012.7
20260507040803 57 227 0.0 4.0 0.02 0.08 0.07 91 1012.7
20260507035806 57 231 1.0 4.0 0.02 0.07 0.06 91 1012.4
20260507034806 57 243 0.0 4.0 0.03 0.07 0.06 91 1012.4
20260507033802 57 278 2.0 3.0 0.04 0.07 0.06 90 1012.5
20260507032805 57 278 0.0 2.0 0.06 0.07 0.06 90 1012.5
20260507031806 57 278 1.0 4.0 0.06 0.07 0.06 90 1012.5
20260507030802 58 288 2.0 2.0 0.06 0.07 0.06 89 1012.5
20260507025801 58 247 1.0 3.0 0.05 0.02 0.05 88 1012.6
20260507024800 58 241 2.0 4.0 0.03 0.02 0.03 87 1012.5
20260507023806 59 220 2.0 4.0 0.02 0.02 0.02 86 1012.4
20260507022759 60 269 3.0 5.0 0.01 0.02 0.01 83 1012.4
20260507021756 60 302 4.0 9.0 0.01 0.02 0.00 81 1012.3
20260507020756 60 278 4.0 7.0 0.00 0.02 0.00 80 1012.1
20260507015755 61 279 4.0 6.0 0.00 0.02 0.00 79 1012.0
20260507014754 61 271 2.0 3.0 0.00 0.02 0.00 78 1011.9
20260507013753 61 261 2.0 3.0 0.00 0.02 0.00 77 1012.0
20260507012755 61 264 2.0 4.0 0.00 0.02 0.00 77 1011.9
20260507011752 61 247 2.0 4.0 0.00 0.02 0.00 77 1011.9
20260507010958 62 283 2.0 4.0 0.00 0.02 0.00 74 1011.9
20260507010942 62 290 5.0 9.0 0.00 0.02 0.00 75 1011.8
20260507010825 61 282 3.0 11.0 0.00 0.02 0.00 76 1011.9
20260507003751 62 295 2.0 3.0 0.00 0.02 0.00 73 1012.1
20260507002754 62 313 0.0 2.0 0.00 0.02 0.00 73 1012.2
20260507002436 62 313 1.0 4.0 0.00 0.02 0.00 74 1012.2
20260507000748 62 17 0.0 3.0 0.00 0.02 0.00 74 1012.2
20260506235747 61 0 2.0 5.0 0.00 0.02 0.00 75 1012.2
20260506234751 61 42 2.0 4.0 0.00 0.02 0.00 75 1012.3
20260506233751 62 35 3.0 4.0 0.00 0.02 0.00 75 1012.3
20260506232749 62 86 3.0 6.0 0.00 0.02 0.00 74 1012.4
20260506231749 62 288 0.0 2.0 0.00 0.02 0.00 71 1012.4
20260506230748 63 288 0.0 6.0 0.00 0.02 0.00 71 1012.3
20260506225747 63 302 2.0 4.0 0.00 0.02 0.00 71 1012.3
20260506224747 63 310 2.0 4.0 0.00 0.02 0.00 70 1012.3
20260506223747 63 314 3.0 4.0 0.00 0.02 0.00 70 1012.5
20260506222748 63 337 3.0 5.0 0.00 0.02 0.00 71 1012.5
20260506221750 63 0 2.0 5.0 0.00 0.02 0.00 71 1012.5
20260506220748 63 298 2.0 4.0 0.00 0.02 0.00 71 1012.4